Weather Roundup
Issued by NWS Chicago, IL

Home | Current Version | Previous Version | Graphics & Text | Print | Product List | Glossary On
Versions: 1 2 3 4 5 6 7 8 9 10 11 12 13 14 15 16 17 18 19 20 21 22 23 24 25 26 27 28 29 30 31 32 33 34 35 36 37 38 39 40 41 42 43 44 45 46 47 48 49 50
000
NZUS59 KLOT 251312
HRRLOT

CHICAGO AREA WEATHER ROUNDUP
NATIONAL WEATHER SERVICE CHICAGO/ROMEOVILLE IL
800 AM CDT MON MAY 25 2015

NOTE: "FAIR" INDICATES FEW OR NO CLOUDS BELOW 12,000 FEET WITH NO
SIGNIFICANT WEATHER AND/OR OBSTRUCTIONS TO VISIBILITY.

* THESE STATIONS ARE NOT UNDER NWS QUALITY CONTROL. THEY ALSO MAY NOT
  REPORT WEATHER SUCH AS PRECIPITATION OR FOG.

ILZ005-006-012>014-019>023-251400-
NORTHEAST ILLINOIS

CITY           SKY/WX    TMP DP  RH WIND       PRES   REMARKS
OHARE          CLOUDY    71  63  75 S18G29    29.83F
MIDWAY         CLOUDY    73  65  75 S20G31    29.85S
AURORA         CLOUDY    70  63  78 S15G24    29.85R
LANSING*       PTSUNNY   70  64  82 S16G23    29.89R
JOLIET*        CLOUDY    73  66  79 S12G24    29.86S
WAUKEGAN       CLOUDY    70  63  78 S22G35    29.81F
DUPAGE AIRPORT CLOUDY    70  64  81 S18G25    29.83S
WHEELING       CLOUDY    71  63  75 S18G25    29.84F
KANKAKEE*      CLOUDY    71  67  87 S21G26    29.90S
MORRIS*        CLOUDY    71  64  79 SW20G29   29.85R
LEWIS AIRPORT* CLOUDY    71  64  78 SW22G30   29.86R
NORTHERLY IS     N/A     72  62  71 S20         N/A
$$

WIZ051-052-058>065-066-070>072-251400-
SOUTHEAST WISCONSIN

CITY           SKY/WX    TMP DP  RH WIND       PRES   REMARKS
MILWAUKEE      LGT RAIN  60  57  89 SE7       29.80F FOG
KENOSHA*       CLOUDY    70  64  81 S17G31    29.81F
RACINE*        CLOUDY    67  62  84 S12       29.82F
BURLINGTON     CLOUDY    65  64  96 S17       29.79F FOG
WAUKESHA       CLOUDY    63  63 100 S9        29.80F FOG
WEST BEND      CLOUDY    63  61  94 S7        29.78F FOG
$$

INZ001>003-010>013-019-020-251400-
NORTHWEST INDIANA

CITY           SKY/WX    TMP DP  RH WIND       PRES   REMARKS
GARY*          PTSUNNY   72  68  88 S12       29.88S
MICHIGAN CITY* NOT AVBL
RENSSELAER*    NOT AVBL
VALPARAISO     LGT RAIN  70  65  84 S16G30    29.92R
$$

LMZ740>746-251400-
SOUTHERN LAKE MICHIGAN

STATION/POSITION TIME  SKY/WX   TEMP WIND        PRES    VSBY
                                AIR  DIR/SP/G
                 (UTC)          (F)  (DEG/KT/KT) (MB)    (MI)
HARRISON CRIB    1200            68  190/ 24/ 30   N/A
BURNHAM HARBOR   1300            72  220/ 20/ 21   N/A
CALUMET HARBOR   1200            71  170/ 13/ 23   N/A
BURNS HARBOR     1224            72  190/ 16/ 28 1012.2F
MICHIGAN CITY    1200            72  160/ 14/ 20   N/A
$$

ABBREVIATIONS USED IN REMARKS
   TC - TEMPERATURE IN CELSIUS
  WCI - WIND CHILL INDEX
   HX - HEAT INDEX
  VSB - VISIBILITY
$$


USA.gov is the U.S. government's official web portal to all federal, state and local government web resources and services.